Retour au catalogue

QIANFAN-66

ActifCommunicationsPO
NORAD 62796·PAYLOAD·🇨🇳 China

Lancé Jan 23, 2025 depuis Taiyuan Satellite Launch Center

Loading…

Prochains Passages (prochaines 24 heures)

TLE

FraisSource: Space-Track

Époque: Sep 14, 2026, 22:33 UTC

1 62796U 25016M   26257.93997086  .00000038  00000-0  40691-4 0  9992
2 62796  88.9672  74.3623 0013170 259.8109 100.1556 13.51019572 84580

Suivez QIANFAN-66 en temps réel avec AllMySat

Download on the App Store